Regional Weather Roundup
Issued by NWS

Home | Current Version | Previous Version | Graphics & Text | Print | Product List | Glossary On
Versions: 1 2 3 4 5 6 7 8 9 10 11 12 13 14 15 16 17 18 19 20 21 22 23 24 25 26 27 28 29 30 31 32 33 34 35 36 37 38 39 40 41 42 43 44 45 46 47 48 49 50
008
ASUS44 KMEG 271010
RWRTN
TENNESSEE HOURLY STATE WEATHER ROUNDUP
NATIONAL WEATHER SERVICE MEMPHIS TN
500 AM CDT THU APR 27 2017

TNZ002-004-019-021-049-052-054-088>092-271100-
WEST TENNESSEE

CITY           SKY/WX    TMP DP  RH WIND       PRES   REMARKS
MEMPHIS INTL   CLOUDY    51  48  89 NW9       29.71R
NWS MEMPHIS      N/A     50 N/A N/A MISG        N/A
JACKSON        CLOUDY    53  52  96 W7        29.68R FOG
DYERSBURG      CLOUDY    51  47  86 W9        29.69R
SOMERVILLE     CLOUDY    52  50  93 VRB7G13   29.69R FOG
UNION CITY     CLOUDY    52  48  87 W12       29.66R
BOLIVAR        CLOUDY    55  54  94 VRB5G14   29.67R
PARIS          CLOUDY    52  50  93 W10       29.64R
HUNTINGDON     CLOUDY    55  54  94 W8G15     29.64R
LEXINGTON      CLOUDY    61  61 100 W10       29.64R
SAVANNAH       CLOUDY    63  61  94 S9        29.64R
$$

TNZ008-025-027-028-033-062-065-066-271100-
NORTH MIDDLE TENNESSEE

CITY           SKY/WX    TMP DP  RH WIND       PRES   REMARKS
NASHVILLE      CLOUDY    65  63  93 SW7       29.61S
PORTLAND       CLOUDY    63  61  94 S7        29.59S
CLARKSVILLE    CLOUDY    62  58  86 S9        29.59R
SMYRNA         CLOUDY    64  62  93 S6        29.63S
COOKEVILLE     CLOUDY    63  61  94 SE14G20   29.62F
GALLATIN       CLOUDY    64  63  94 S5        29.63S
CROSSVILLE     LGT RAIN  60  57  89 SE9       29.70F FOG
$$

TNZ061-075-076-078-094-096-097-271100-
SOUTH MIDDLE TENNESSEE

CITY           SKY/WX    TMP DP  RH WIND       PRES   REMARKS
FAYETTEVILLE   CLOUDY    64  63  94 S10       29.66R
TULLAHOMA      MOCLDY    63  61  94 S7        29.67R
WINCHESTER     CLOUDY    63  61  94 SE16      29.68R
MCMINNVILLE    CLOUDY    63  63 100 VRB5      29.66S
COLUMBIA       PTCLDY   N/A N/A N/A SW8       29.63R
SHELBYVILLE    MOCLDY    64  64 100 S9        29.64R
$$

TNZ017-018-042-046-047-271100-
NORTHEAST TENNESSEE

CITY           SKY/WX    TMP DP  RH WIND       PRES   REMARKS
TRI CITIES     CLOUDY    66  53  63 S3        29.74R
ELIZABETHTON   CLOUDY    55  54  94 CALM      29.78R
$$

TNZ012-013-036-069-073-074-271100-
CENTRAL EAST TENNESSEE

CITY           SKY/WX    TMP DP  RH WIND       PRES   REMARKS
KNOXVILLE      CLOUDY    65  55  70 SW8       29.70F
OAK RIDGE      CLOUDY    69  54  58 VRB3      29.71F
DOWNTOWN KNOXV CLEAR     64  57  77 CALM      29.71F
GATLINBURG     CLEAR     61  54  77 NE5       29.71F
MORRISTOWN     CLEAR     57  55  94 SE3       29.74R
JACKSBORO      CLEAR     70  55  60 S12       29.73F
$$

TNZ083-085-099-271100-
SOUTHEAST TENNESSEE

CITY           SKY/WX    TMP DP  RH WIND       PRES   REMARKS
CHATTANOOGA    TSTM      64  61  90 E3        29.72R FOG
$$

SKY/WX REPORTED AS FAIR MEANS FEW OR NO CLOUDS BELOW
12 THOUSAND FEET.





USA.gov is the U.S. government's official web portal to all federal, state and local government web resources and services.